Wind_Speed
44 44 44 44 44 45 45 44 43 42 42 41 42 42 43 43 44 44 43 43 43 44 44 44 44 45 45 46 46 46 46 46 47 47 47 47 46 46
46 46 45 45 46 46 45 45 44 44 43 43 43 44 44 45 45 45 44 44 45 45 45 46 46 46 47 47 47 46 46 46 46 46 46 46 46 46
47 46 46 46 45 45 45 46 46 45 45 44 44 44 44 45 45 45 45 46 46 46 47 48 47 47 48 47 47 46 46 46 46 46 46 47 47 47
47 46 47 46 46 46 46 46 46 46 46 45 45 44 44 45 46 46 46 47 48 48 49 49 49 48 48 46 46 46 46 47 47 47 47 47 47 47
48 48 47 47 48 48 47 47 47 46 46 46 45 45 45 46 47 47 47 48 49 49 50 50 49 48 47 46 46 47 47 48 48 48 48 47 47 47
49 48 48 48 48 48 47 47 47 47 47 47 46 46 46 47 48 48 48 49 50 50 50 49 48 47 47 47 48 48 48 48 48 48 47 47 47 46
49 48 48 48 48 48 47 47 47 47 47 47 47 47 48 48 49 49 49 49 49 49 48 48 48 48 48 48 49 49 49 48 48 47 47 47 47 47
48 48 49 49 49 48 48 47 47 48 48 48 49 49 49 50 50 50 50 50 49 48 48 48 48 49 49 49 49 49 49 49 48 48 48 48 48 48
49 49 49 49 50 49 49 49 49 49 49 49 50 50 50 51 51 51 50 50 50 49 49 49 50 50 49 49 49 49 49 48 48 48 48 48 48 48
50 49 50 49 49 50 50 50 51 51 50 50 50 50 51 51 51 51 50 50 50 50 50 50 49 49 48 48 49 50 49 48 48 48 48 48 48 48
51 51 51 51 51 51 50 50 51 51 50 50 50 50 50 50 51 50 50 50 50 50 49 49 49 47 47 47 49 49 49 48 48 48 48 48 48 47
52 52 52 52 51 51 51 51 50 50 50 50 50 50 51 51 51 51 50 50 50 48 48 48 47 47 46 46 48 48 48 48 48 48 48 48 48 46
52 53 53 53 52 52 52 52 52 51 50 50 50 50 50 50 50 50 51 50 48 47 47 47 46 46 46 45 45 46 47 47 47 47 47 47 46 45
52 53 52 52 52 52 53 53 52 51 50 50 50 50 49 49 49 49 49 48 47 46 46 46 44 44 44 44 44 44 45 44 44 44 45 45 44 43
50 50 50 50 50 50 50 50 50 50 50 50 49 48 48 48 48 48 46 45 45 45 45 45 44 44 44 44 44 43 42 42 42 43 43 42 41 41
47 47 47 47 47 48 49 48 48 47 47 47 47 47 47 46 46 45 44 44 44 44 44 43 43 44 44 44 44 43 42 41 41 42 42 40 40 40
44 45 46 46 46 47 47 46 46 45 45 45 45 45 45 45 44 43 42 42 42 42 42 42 43 43 43 43 42 42 42 41 41 41 41 40 40 40
43 44 45 45 45 45 45 44 44 44 44 44 44 44 44 44 43 42 41 41 40 40 41 41 41 41 41 41 42 41 41 41 41 42 41 39 39 38
42 43 43 44 44 44 43 43 43 43 44 44 44 44 43 42 41 40 39 39 39 39 39 39 39 39 39 39 40 41 40 40 40 40 39 37 36 35
41 42 42 43 43 43 42 42 42 42 43 43 43 42 41 40 39 38 37 37 37 37 37 38 38 39 38 38 38 39 40 39 38 37 35 34 33 33
41 41 41 41 41 42 41 41 41 42 42 42 41 40 39 38 37 36 36 36 35 35 36 37 37 38 38 37 37 37 37 37 35 34 32 31 30 29
41 41 41 41 41 42 41 41 41 41 40 39 39 38 37 36 35 34 35 34 34 34 35 35 36 36 36 36 35 34 33 33 32 31 31 29 28 27
40 40 40 40 40 41 41 41 41 40 38 37 37 36 35 33 33 33 33 32 32 33 34 34 34 34 34 33 32 31 30 29 29 29 28 27 26 25
Wind_Direction
273 274 276 277 279 281 283 284 286 287 289 290 290 291 292 293 295 296 297 298 299 300 301 301 300 300 300 300 298 297 296 295 295 295 295 294 293 292
273 274 275 277 279 280 282 283 285 286 288 288 289 291 292 293 294 296 297 298 299 299 300 300 301 301 301 300 298 297 296 296 295 295 295 295 294 293
273 274 275 276 278 280 282 283 285 286 288 288 290 291 292 293 293 295 296 297 298 299 300 300 300 300 300 299 297 297 297 297 296 296 296 295 294 294
273 274 276 277 278 280 282 283 284 286 287 288 289 290 291 292 294 295 295 296 298 299 299 299 300 299 299 298 298 298 298 297 297 297 296 296 295 294
272 274 275 277 278 280 281 282 283 284 286 287 289 290 291 292 293 294 296 297 298 299 299 299 299 299 299 298 299 299 299 298 298 297 297 296 296 295
272 273 275 276 277 279 280 281 282 284 285 286 287 289 290 292 293 294 295 296 298 298 298 298 298 298 298 298 299 300 299 299 299 298 298 297 297 296
272 272 274 276 277 278 280 281 282 284 285 286 287 288 290 292 293 293 294 296 297 298 298 298 298 299 299 298 299 299 300 299 299 299 298 298 298 297
272 273 274 276 277 278 279 281 282 283 284 286 287 289 290 292 293 293 295 295 296 296 297 297 298 298 298 298 298 299 299 299 299 298 298 297 297 298
271 272 273 276 278 278 279 281 283 284 285 286 287 289 290 292 293 293 295 296 296 296 296 297 297 298 298 297 297 297 298 299 299 298 298 299 298 299
270 272 275 276 278 279 280 281 283 284 285 285 287 289 290 292 293 294 294 294 295 295 296 297 297 297 297 297 297 298 299 299 299 299 299 300 299 299
270 272 274 275 277 278 279 281 282 283 284 285 287 289 290 292 293 294 294 294 295 295 295 297 297 296 296 297 298 299 299 299 300 300 300 300 300 299
269 271 273 275 277 278 279 281 282 282 283 285 287 288 289 291 293 294 294 294 295 294 295 297 297 297 296 297 298 299 300 300 300 301 301 301 301 300
270 272 273 275 276 278 280 280 281 282 284 285 287 289 290 292 293 294 294 295 294 294 295 297 297 297 298 297 298 299 300 300 300 301 301 302 301 301
270 271 272 274 276 277 278 280 281 283 284 286 287 289 290 291 292 294 294 294 293 294 295 296 297 297 298 299 300 300 301 301 301 301 302 302 302 302
271 271 272 273 275 277 279 280 281 283 284 286 287 289 290 290 291 292 293 292 293 294 295 296 296 297 299 300 301 301 301 301 301 302 303 303 302 302
270 270 272 274 276 277 279 280 281 282 284 286 287 289 290 290 290 291 292 291 291 292 294 295 296 298 299 301 302 302 302 302 302 303 304 304 303 303
271 271 273 275 277 278 278 279 281 282 284 286 287 287 288 289 290 290 290 290 290 291 292 294 296 298 299 301 302 303 303 304 304 304 304 304 304 304
274 274 274 275 276 276 277 278 280 281 283 285 286 288 289 289 289 289 289 290 290 291 292 294 295 297 299 301 302 303 304 305 305 306 305 304 304 304
274 275 276 276 277 277 278 279 280 282 284 285 286 287 288 288 287 288 288 289 289 290 292 294 296 297 299 300 302 304 305 305 306 307 306 305 304 304
275 276 277 278 278 277 278 280 281 283 284 285 286 286 287 287 287 286 287 288 289 290 292 295 297 298 300 301 302 304 305 306 307 307 306 305 306 307
277 278 279 279 279 279 280 280 282 283 284 285 284 285 285 285 285 284 285 287 289 291 293 296 298 299 301 303 304 305 306 307 307 308 307 307 308 309
278 279 280 280 281 281 281 282 282 283 284 283 283 283 283 284 284 284 285 287 288 291 294 297 299 301 302 304 306 306 307 307 309 310 310 311 311 313
278 278 279 281 281 281 281 282 282 282 282 281 281 281 282 282 283 284 285 286 288 291 295 298 301 303 304 306 307 308 308 309 311 312 313 313 316 319
Height
5745 5744 5743 5742 5741 5740 5738 5736 5735 5734 5732 5729 5726 5723 5719 5716 5713 5709 5706 5702 5699 5695 5690 5686 5682 5678 5673 5669 5664 5660 5657 5653 5649 5645 5641 5637 5634 5631
5734 5733 5732 5731 5730 5729 5727 5725 5723 5722 5720 5719 5715 5712 5709 5705 5702 5699 5696 5692 5688 5684 5680 5676 5671 5667 5662 5658 5653 5649 5645 5641 5637 5633 5629 5626 5622 5619
5722 5722 5721 5720 5719 5718 5716 5714 5712 5710 5709 5708 5704 5701 5698 5695 5692 5689 5685 5682 5678 5673 5669 5665 5660 5655 5651 5646 5642 5637 5634 5630 5626 5622 5618 5614 5610 5607
5711 5710 5710 5709 5708 5706 5705 5703 5701 5699 5697 5696 5694 5691 5688 5685 5682 5678 5675 5671 5666 5662 5658 5653 5648 5644 5639 5634 5630 5626 5622 5618 5614 5610 5606 5602 5598 5594
5699 5698 5698 5697 5696 5695 5693 5691 5689 5687 5685 5684 5682 5680 5677 5674 5671 5667 5664 5660 5655 5650 5646 5641 5636 5632 5627 5623 5619 5615 5611 5607 5602 5598 5594 5589 5585 5581
5686 5686 5685 5685 5684 5683 5681 5680 5678 5676 5674 5672 5670 5668 5666 5662 5659 5656 5653 5649 5644 5639 5634 5629 5625 5620 5616 5612 5608 5603 5599 5594 5590 5585 5581 5577 5573 5569
5674 5674 5673 5672 5672 5671 5669 5668 5666 5665 5662 5660 5659 5656 5654 5651 5647 5644 5640 5637 5632 5627 5623 5618 5613 5609 5605 5600 5595 5591 5586 5582 5578 5573 5569 5565 5561 5557
5662 5662 5661 5660 5659 5658 5657 5656 5654 5652 5651 5649 5646 5644 5641 5638 5635 5631 5627 5624 5621 5617 5611 5607 5602 5597 5593 5588 5583 5578 5574 5570 5565 5561 5557 5553 5548 5544
5650 5649 5649 5648 5647 5646 5645 5643 5642 5640 5638 5636 5634 5631 5628 5626 5622 5619 5615 5610 5606 5602 5599 5596 5590 5585 5580 5575 5571 5566 5562 5557 5553 5549 5544 5540 5535 5531
5637 5636 5636 5635 5634 5633 5633 5631 5629 5627 5625 5623 5621 5618 5615 5611 5608 5605 5601 5598 5594 5589 5585 5582 5578 5573 5568 5563 5558 5553 5549 5545 5540 5536 5531 5527 5522 5518
5624 5624 5623 5623 5622 5621 5620 5618 5617 5615 5612 5610 5607 5604 5601 5597 5594 5591 5588 5585 5582 5578 5573 5569 5565 5561 5557 5551 5546 5540 5536 5532 5527 5523 5518 5514 5509 5505
5610 5610 5610 5609 5608 5607 5606 5605 5604 5602 5600 5597 5594 5591 5587 5584 5580 5577 5574 5571 5567 5565 5561 5556 5552 5548 5545 5541 5535 5529 5524 5519 5514 5510 5505 5500 5496 5491
5597 5597 5596 5595 5594 5593 5592 5591 5590 5588 5586 5584 5581 5578 5575 5571 5568 5564 5560 5557 5554 5550 5547 5543 5539 5535 5530 5528 5524 5518 5512 5507 5503 5498 5492 5487 5482 5478
5583 5582 5582 5581 5581 5580 5578 5577 5576 5574 5572 5570 5567 5565 5562 5559 5555 5551 5548 5544 5540 5537 5534 5530 5527 5523 5519 5515 5512 5507 5501 5496 5491 5486 5481 5476 5471 5466
5568 5568 5568 5567 5567 5566 5564 5563 5561 5560 5558 5556 5554 5551 5549 5546 5543 5539 5536 5532 5528 5525 5522 5518 5515 5511 5507 5503 5500 5495 5491 5486 5480 5475 5470 5465 5460 5456
5555 5555 5554 5553 5553 5552 5550 5549 5547 5546 5544 5542 5540 5538 5535 5533 5530 5527 5524 5521 5518 5515 5511 5507 5503 5500 5496 5492 5487 5483 5479 5474 5470 5465 5460 5455 5450 5445
5541 5541 5541 5540 5540 5538 5537 5535 5534 5533 5531 5529 5527 5525 5523 5520 5517 5515 5512 5509 5506 5503 5500 5496 5492 5488 5484 5480 5476 5472 5467 5463 5458 5454 5450 5445 5440 5435
5528 5528 5528 5527 5526 5525 5524 5522 5521 5519 5518 5516 5515 5513 5510 5508 5505 5502 5500 5497 5495 5492 5489 5486 5482 5478 5475 5470 5465 5461 5456 5452 5448 5443 5438 5435 5431 5426
5515 5515 5514 5514 5513 5512 5511 5510 5508 5507 5505 5504 5502 5500 5497 5495 5493 5491 5488 5486 5484 5481 5478 5475 5472 5468 5465 5461 5456 5450 5446 5442 5438 5434 5429 5424 5421 5417
5503 5502 5502 5501 5500 5499 5498 5497 5495 5494 5492 5490 5489 5487 5485 5483 5482 5480 5477 5475 5473 5471 5468 5465 5461 5458 5454 5451 5447 5442 5436 5432 5429 5425 5420 5416 5412 5408
5490 5490 5489 5488 5487 5486 5485 5484 5483 5481 5480 5478 5476 5475 5473 5472 5471 5469 5467 5465 5463 5461 5459 5455 5451 5448 5444 5441 5437 5433 5427 5422 5418 5415 5412 5408 5405 5401
5478 5477 5477 5476 5475 5474 5473 5472 5470 5469 5467 5466 5464 5463 5462 5461 5460 5459 5457 5456 5454 5451 5449 5446 5442 5438 5435 5431 5427 5424 5420 5415 5410 5406 5402 5399 5396 5393
5466 5465 5465 5464 5463 5461 5460 5459 5458 5457 5456 5454 5453 5452 5452 5451 5450 5449 5447 5446 5444 5442 5440 5437 5433 5430 5426 5422 5419 5415 5412 5408 5405 5401 5397 5392 5388 5385